Find Starlink 30547

NORAD ID: 58044 Int'l Des: 2023-156 Owner: SPXS Country: US Constellation: starlink operational
LEOCIRCULAR

实时位置

正在加载3D地球...

关于 Starlink 30547

正在加载描述...

即将过境

Passes for default location (London). Set your location on the main map for personalized predictions.

高度历史

Loading altitude history...

两行轨道根数

1 58044U 23156S 26124.67635073 -.00000454 00000-0 -31984-5 0 9995
2 58044 53.1598 268.1520 0001205 62.1909 297.9213 15.30193976143604
Epoch: May 4, 2026 • Age: 29 hours

当前状态

高度 491.5 km
速度 7.62 km/s
星下点 -45.53°S, 54.48°W
发射日期 Oct 9, 2023
运行时间 2.5 years
类型 internet

技术详情

分类 Payload
质量 730.00 kg
干质量 700.00 kg
总质量 730.00 kg
长度 0.30 m
直径 4.10 m
跨度 29.00 m
形状 Box + pan
制造商 SPXS
平台类型 Starlink V2M
阶段状态 In Orbit
所有者/国家 SPXS/US

Most Searched